Year,Month,Day,Hour,Minute,Value (Times are PST for temperature in C)
2008,10,01,00,00,12.20
2008,10,01,00,01,12.10
2008,10,01,00,02,12.00
2008,10,01,00,03,12.00
2008,10,01,00,04,12.00
2008,10,01,00,05,11.90
2008,10,01,00,06,11.90
2008,10,01,00,07,11.90
2008,10,01,00,08,11.90
2008,10,01,00,09,11.90
2008,10,01,00,10,11.90
2008,10,01,00,11,11.90
2008,10,01,00,12,11.80
2008,10,01,00,13,11.80
2008,10,01,00,14,11.80
2008,10,01,00,15,11.80
2008,10,01,00,16,11.80
2008,10,01,00,17,11.80
2008,10,01,00,18,11.80
2008,10,01,00,19,11.70
2008,10,01,00,20,11.70
2008,10,01,00,21,11.70
2008,10,01,00,22,11.70
2008,10,01,00,23,11.70
2008,10,01,00,24,11.70
2008,10,01,00,25,11.70
2008,10,01,00,26,11.70
2008,10,01,00,27,11.60
2008,10,01,00,28,11.60
2008,10,01,00,29,11.60
2008,10,01,00,30,11.60
2008,10,01,00,31,11.60
2008,10,01,00,32,11.60
2008,10,01,00,33,11.60
2008,10,01,00,34,11.60
2008,10,01,00,35,11.60
2008,10,01,00,36,11.60
2008,10,01,00,37,11.60
2008,10,01,00,38,11.60
2008,10,01,00,39,11.60
2008,10,01,00,40,11.60
2008,10,01,00,41,11.60
2008,10,01,00,42,11.60
2008,10,01,00,43,11.60
2008,10,01,00,44,11.60
2008,10,01,00,45,11.50
2008,10,01,00,46,11.50
2008,10,01,00,47,11.50
2008,10,01,00,48,11.50
2008,10,01,00,49,11.50
2008,10,01,00,50,11.50
2008,10,01,00,51,11.50
2008,10,01,00,52,11.50
2008,10,01,00,53,11.50
2008,10,01,00,54,11.40
2008,10,01,00,55,11.40
2008,10,01,00,56,11.40
2008,10,01,00,57,11.40
2008,10,01,00,58,11.40
2008,10,01,00,59,11.40
2008,10,01,01,00,11.40
2008,10,01,01,01,11.40
2008,10,01,01,02,11.40
2008,10,01,01,03,11.40
2008,10,01,01,04,11.40
2008,10,01,01,05,11.40
2008,10,01,01,06,11.40
2008,10,01,01,07,11.40
2008,10,01,01,08,11.40
2008,10,01,01,09,11.40
2008,10,01,01,10,11.40
2008,10,01,01,11,11.30
2008,10,01,01,12,11.30
2008,10,01,01,13,11.30
2008,10,01,01,14,11.30
2008,10,01,01,15,11.30
2008,10,01,01,16,11.30
2008,10,01,01,17,11.30
2008,10,01,01,18,11.20
2008,10,01,01,19,11.20
2008,10,01,01,20,11.20
2008,10,01,01,21,11.20
2008,10,01,01,22,11.20
2008,10,01,01,23,11.10
2008,10,01,01,24,11.10
2008,10,01,01,25,11.10
2008,10,01,01,26,11.10
2008,10,01,01,27,11.10
2008,10,01,01,28,11.10
2008,10,01,01,29,11.00
2008,10,01,01,30,11.00
2008,10,01,01,31,11.00
2008,10,01,01,32,10.90
2008,10,01,01,33,10.90
2008,10,01,01,34,10.90
2008,10,01,01,35,10.90
2008,10,01,01,36,10.90
2008,10,01,01,37,10.90
2008,10,01,01,38,10.80
2008,10,01,01,39,10.80
2008,10,01,01,40,10.80
2008,10,01,01,41,10.80
2008,10,01,01,42,10.80
2008,10,01,01,43,10.80
2008,10,01,01,44,10.80
2008,10,01,01,45,10.80
2008,10,01,01,46,10.80
2008,10,01,01,47,10.80
2008,10,01,01,48,10.80
2008,10,01,01,49,10.70
2008,10,01,01,50,10.70
2008,10,01,01,51,10.70
2008,10,01,01,52,10.70
2008,10,01,01,53,10.70
2008,10,01,01,54,10.70
2008,10,01,01,55,10.80
2008,10,01,01,56,10.70
2008,10,01,01,57,10.70
2008,10,01,01,58,10.70
2008,10,01,01,59,10.70
2008,10,01,02,00,10.70
2008,10,01,02,01,10.70
2008,10,01,02,02,10.70
2008,10,01,02,03,10.70
2008,10,01,02,04,10.70
2008,10,01,02,05,10.70
2008,10,01,02,06,10.70
2008,10,01,02,07,10.70
2008,10,01,02,08,10.70
2008,10,01,02,09,10.70
2008,10,01,02,10,10.70
2008,10,01,02,11,10.70
2008,10,01,02,12,10.70
2008,10,01,02,13,10.60
2008,10,01,02,14,10.60
2008,10,01,02,15,10.60
2008,10,01,02,16,10.60
2008,10,01,02,17,10.60
2008,10,01,02,18,10.60
2008,10,01,02,19,10.60
2008,10,01,02,20,10.70
2008,10,01,02,21,10.70
2008,10,01,02,22,10.70
2008,10,01,02,23,10.70
2008,10,01,02,24,10.60
2008,10,01,02,25,10.60
2008,10,01,02,26,10.60
2008,10,01,02,27,10.60
2008,10,01,02,28,10.60
2008,10,01,02,29,10.60
2008,10,01,02,30,10.60
2008,10,01,02,31,10.60
2008,10,01,02,32,10.60
2008,10,01,02,33,10.60
2008,10,01,02,34,10.60
2008,10,01,02,35,10.60
2008,10,01,02,36,10.60
2008,10,01,02,37,10.50
2008,10,01,02,38,10.50
2008,10,01,02,39,10.50
2008,10,01,02,40,10.50
2008,10,01,02,41,10.50
2008,10,01,02,42,10.40
2008,10,01,02,43,10.40
2008,10,01,02,44,10.40
2008,10,01,02,45,10.40
2008,10,01,02,46,10.40
2008,10,01,02,47,10.40
2008,10,01,02,48,10.40
2008,10,01,02,49,10.40
2008,10,01,02,50,10.50
2008,10,01,02,51,10.50
2008,10,01,02,52,10.50
2008,10,01,02,53,10.50
2008,10,01,02,54,10.50
2008,10,01,02,55,10.50
2008,10,01,02,56,10.50
2008,10,01,02,57,10.50
2008,10,01,02,58,10.50
2008,10,01,02,59,10.50
2008,10,01,03,00,10.50
2008,10,01,03,01,10.50
2008,10,01,03,02,10.40
2008,10,01,03,03,10.40
2008,10,01,03,04,10.40
2008,10,01,03,05,10.40
2008,10,01,03,06,10.40
2008,10,01,03,07,10.30
2008,10,01,03,08,10.30
2008,10,01,03,09,10.30
2008,10,01,03,10,10.30
2008,10,01,03,11,10.30
2008,10,01,03,12,10.30
2008,10,01,03,13,10.30
2008,10,01,03,14,10.30
2008,10,01,03,15,10.20
2008,10,01,03,16,10.20
2008,10,01,03,17,10.20
2008,10,01,03,18,10.20
2008,10,01,03,19,10.20
2008,10,01,03,20,10.20
2008,10,01,03,21,10.20
2008,10,01,03,22,10.20
2008,10,01,03,23,10.10
2008,10,01,03,24,10.10
2008,10,01,03,25,10.10
2008,10,01,03,26,10.10
2008,10,01,03,27,10.10
2008,10,01,03,28,10.10
2008,10,01,03,29,10.10
2008,10,01,03,30,10.10
2008,10,01,03,31,10.10
2008,10,01,03,32,10.00
2008,10,01,03,33,10.00
2008,10,01,03,34,10.00
